Regional Weather Roundup
Issued by NWS

Home | Current Version | Previous Version | Graphics & Text | Print | Product List | Glossary On
Versions: 1 2 3 4 5 6 7 8 9 10 11 12 13 14 15 16 17 18 19 20 21 22 23 24 25 26 27 28 29 30 31 32 33 34 35 36 37 38 39 40 41 42 43 44 45 46 47 48 49 50
000
ASUS44 KMEG 041110
RWRTN
TENNESSEE HOURLY STATE WEATHER ROUNDUP
NATIONAL WEATHER SERVICE MEMPHIS TN
500 AM CST WED MAR 04 2015

TNZ002-004-019-021-049-052-054-088>092-041200-
WEST TENNESSEE

CITY           SKY/WX    TMP DP  RH WIND       PRES   REMARKS
MEMPHIS INTL   CLOUDY    59  57  93 NW12      29.86R FOG
NWS MEMPHIS      N/A     63 N/A N/A MISG        N/A
JACKSON        LGT RAIN  52  51  97 NE7       29.87R
DYERSBURG      CLOUDY    46  36  66 NE5       29.90R
UNION CITY     CLOUDY    45  45 100 NE5       29.88S
PARIS          CLOUDY    46  45  93 NE7       29.89R
LEXINGTON      CLOUDY    54  54 100 N9        29.86R
SAVANNAH       CLOUDY    66  66 100 S15       29.87R
$$

TNZ008-025-027-028-033-062-065-066-041200-
NORTH MIDDLE TENNESSEE

CITY           SKY/WX    TMP DP  RH WIND       PRES   REMARKS
NASHVILLE      LGT RAIN  52  50  93 NW13      29.89R
CLARKSVILLE    HVY RAIN  45  45 100 NE6       29.91F FOG
SMYRNA         CLOUDY    64  61  90 VRB5      29.88R
COOKEVILLE     CLOUDY    63  61  94 SW12      29.89R
CROSSVILLE     LGT RAIN  60  58  92 S7        29.92S FOG
$$

TNZ061-075-076-078-094-096-097-041200-
SOUTH MIDDLE TENNESSEE

CITY           SKY/WX    TMP DP  RH WIND       PRES   REMARKS
FAYETTEVILLE   CLOUDY    61  61 100 SW10        N/A
TULLAHOMA      CLOUDY    63  61  94 SW17      29.93R
WINCHESTER     CLOUDY    64  61  88 SW8       29.93S
MCMINNVILLE    CLOUDY    63  63 100 SW12      29.90R
COLUMBIA         N/A    N/A N/A N/A SW13      29.85S
SHELBYVILLE    CLOUDY    64  64 100 S13       29.90R
$$

TNZ017-018-042-046-047-041200-
NORTHEAST TENNESSEE

CITY           SKY/WX    TMP DP  RH WIND       PRES   REMARKS
TRI CITIES     LGT RAIN  46  45  96 N3        29.93S VSB 1/2
ELIZABETHTON   LGT RAIN  46  46 100 CALM      29.93F
$$

TNZ012-013-036-069-073-074-041200-
CENTRAL EAST TENNESSEE

CITY           SKY/WX    TMP DP  RH WIND       PRES   REMARKS
KNOXVILLE      LGT RAIN  59  58  96 SW14      29.91S
OAK RIDGE      LGT RAIN  54  53  97 W3        29.93S FOG
GATLINBURG     CLOUDY    48  48 100 CALM      29.89F
MORRISTOWN     CLOUDY    57  57 100 W12       29.91S
$$

TNZ083-085-099-041200-
SOUTHEAST TENNESSEE

CITY           SKY/WX    TMP DP  RH WIND       PRES   REMARKS
CHATTANOOGA    CLOUDY    59  57  93 SE7       29.96S
$$

SKY/WX REPORTED AS FAIR MEANS FEW OR NO CLOUDS BELOW
12 THOUSAND FEET.




USA.gov is the U.S. government's official web portal to all federal, state and local government web resources and services.